GFSFLT2_850_dewp_237.txt.gz
Dewpoint
7 8 9 9 9 9 9 10 10 11 11 10 10 11 11 10 8 8 8 8 9 6 2 1 1 0 -2 0 4 10 11 9
14 13 11 9 9 9 9 9 10 10 10 10 9 10 11 11 10 8 8 8 8 9 9 4 2 1 0 -1 3 7 11 11
16 15 14 13 10 10 10 10 10 10 10 9 9 9 10 11 12 11 9 9 9 8 9 9 5 3 2 0 1 5 11 11
15 14 13 14 11 11 10 10 11 10 10 10 9 9 9 11 11 12 11 10 10 10 9 9 9 7 4 2 0 1 6 10
15 13 13 13 14 13 13 14 14 14 14 14 14 14 12 9 10 11 12 11 11 11 11 10 10 10 9 5 2 0 1 7
14 14 14 15 13 12 13 15 15 16 15 15 15 14 15 14 12 10 10 10 11 12 12 12 11 11 10 10 6 3 1 1
11 12 14 14 15 14 14 15 15 15 15 15 15 15 15 15 15 15 15 14 13 12 12 12 12 12 11 11 11 7 4 2
4 5 7 10 13 14 15 15 15 15 15 14 14 14 14 14 14 14 14 14 14 14 14 14 14 13 12 12 11 11 8 5
3 2 1 3 7 11 13 13 13 13 13 13 13 13 13 13 13 13 13 13 13 13 13 13 14 14 13 12 12 12 12 9
-1 -2 -1 -0 1 4 9 9 9 8 9 9 9 9 8 8 9 10 10 11 11 13 13 13 13 13 13 13 13 13 13 12
-3 -3 -4 -5 -6 -7 -7 -8 -7 -7 -7 -6 -6 -5 -4 -3 -2 -2 -2 1 3 4 8 12 13 13 13 13 12 12 12 13
-4 -6 -7 -8 -9 -9 -8 -8 -8 -7 -8 -8 -8 -8 -9 -9 -9 -9 -9 -7 -6 -5 -2 -0 5 10 12 12 12 12 12 11
-4 -5 -5 -5 -6 -6 -6 -6 -7 -8 -9 -11 -13 -14 -14 -15 -17 -18 -18 -17 -15 -9 -5 -2 -4 -1 3 10 13 11 12 12
-4 -4 -5 -6 -6 -6 -9 -13 -17 -17 -15 -14 -12 -13 -16 -21 -25 -24 -22 -21 -19 -15 -10 -0 2 0 2 1 5 11 10 12
-4 -5 -5 -6 -7 -11 -18 -20 -20 -18 -17 -13 -12 -13 -16 -18 -22 -20 -16 -14 -13 -2 2 3 6 5 4 5 4 8 7 9
-5 -5 -6 -7 -11 -16 -15 -13 -12 -12 -10 -10 -11 -16 -20 -19 -19 -14 -13 -10 -10 -7 2 3 4 5 5 5 6 5 4 4
-5 -6 -7 -9 -11 -12 -11 -12 -12 -11 -11 -13 -17 -17 -10 -6 -5 -5 -7 -6 -6 -4 -0 2 2 3 3 4 6 6 5 3
-6 -6 -9 -10 -11 -11 -11 -10 -11 -11 -11 -13 -5 -2 -3 -3 -2 -1 -0 0 1 2 1 0 -0 -1 0 1 2 4 5 5
-6 -8 -10 -10 -10 -10 -9 -10 -10 -11 -14 -4 -1 -0 0 1 2 1 -2 -2 0 1 -0 -1 -2 -3 -4 -3 0 1 4 5
-8 -9 -9 -10 -10 -9 -10 -10 -10 -19 -12 -3 -1 -1 0 1 -0 -2 -2 -6 -7 -7 -7 -7 -6 -2 -4 -4 -5 -1 2 3

GFSFLT2_850_dewp_240.txt.gz
Dewpoint
10 10 10 11 12 12 12 12 12 11 11 11 11 11 10 10 8 7 7 7 8 8 5 2 2 1 -2 -2 1 4 6 9
10 10 11 11 11 11 11 11 11 11 11 11 11 10 10 10 10 9 8 8 7 8 9 7 4 3 2 -1 -1 2 3 7
14 13 13 12 11 11 11 11 11 11 11 11 11 10 10 10 11 11 11 9 8 8 8 9 9 6 4 2 -0 -1 1 1
10 9 8 9 10 11 11 11 11 12 12 12 11 11 11 11 11 12 12 12 10 9 9 9 9 9 8 5 2 0 -1 0
12 13 12 11 11 11 11 11 12 12 12 13 14 14 14 14 13 11 12 13 13 11 10 10 10 10 10 9 6 3 1 -0
14 13 12 12 12 12 12 12 12 13 13 14 13 14 13 14 14 14 14 12 11 11 12 13 13 12 11 11 10 9 5 2
12 12 11 11 12 12 13 12 12 12 13 13 13 13 13 14 13 13 13 13 14 14 14 14 14 13 13 13 12 11 10 8
9 9 10 10 11 13 14 14 14 14 13 13 13 13 13 13 12 13 13 13 13 13 13 13 13 13 13 13 13 12 12 11
4 4 4 5 8 12 13 13 13 13 13 13 13 12 12 11 11 11 11 12 12 12 12 13 13 13 12 13 13 13 12 12
2 1 1 1 4 8 8 7 6 6 6 5 6 7 6 6 7 7 8 8 5 6 6 7 12 13 13 13 12 13 12 12
-2 -3 -3 -4 -5 -5 -5 -6 -7 -6 -7 -7 -7 -7 -8 -8 -8 -8 -8 -8 -7 -6 -5 -3 -0 4 9 12 12 13 12 12
-4 -6 -7 -8 -8 -8 -7 -7 -7 -7 -8 -9 -9 -10 -10 -11 -12 -13 -14 -14 -14 -14 -13 -12 -9 -6 -4 -1 3 9 12 12
-7 -6 -6 -6 -6 -6 -7 -9 -13 -17 -19 -20 -20 -20 -20 -19 -18 -19 -22 -23 -23 -21 -19 -17 -16 -10 -4 -6 -7 -6 0 5
-4 -5 -5 -6 -6 -7 -12 -19 -22 -23 -23 -22 -22 -22 -22 -23 -23 -23 -21 -24 -25 -24 -21 -15 -10 -8 -0 4 2 -1 -4 2
-5 -5 -5 -6 -9 -16 -20 -21 -20 -19 -18 -18 -20 -21 -18 -15 -15 -17 -19 -19 -20 -19 -15 -10 2 2 2 3 4 4 4 2
-5 -5 -5 -8 -12 -18 -19 -18 -17 -16 -17 -19 -19 -10 -4 -4 -5 -4 -5 -7 -10 -10 -9 -6 1 2 2 2 3 4 5 5
-5 -3 0 -8 -13 -16 -16 -15 -13 -13 -16 -22 -19 -7 -2 -2 -1 0 0 -1 -1 -3 -4 -4 -2 -0 -0 -1 -1 -0 -2 2
0 -3 -6 -9 -12 -13 -12 -11 -11 -12 -14 -22 -14 -4 -2 -1 1 0 -1 -1 -1 -1 -1 -1 -2 -3 -4 -4 -4 -4 -6 -4
-4 -1 -6 -10 -12 -12 -11 -11 -11 -10 -11 -18 -8 -2 -3 -3 -2 -3 -2 -3 -4 -5 -6 -6 -7 -7 -7 -6 -5 -6 -5 -4
-4 -6 -9 -10 -10 -10 -10 -9 -9 -8 -9 -12 -3 -2 -1 -3 -5 -5 -6 -6 -6 -6 -6 -6 -7 -7 -8 -7 -6 -6 -5 -3

GFSFLT2_850_dewp_243.txt.gz
Dewpoint
10 10 11 11 12 12 12 12 12 12 12 12 11 11 10 9 8 7 7 7 7 8 6 4 3 2 2 0 0 1 5 5
9 9 10 10 10 11 11 11 12 12 12 12 12 12 12 11 11 10 8 7 7 7 8 8 6 4 4 4 1 1 2 5
7 7 8 8 8 9 10 10 10 10 11 11 11 11 11 11 11 12 11 10 9 8 8 8 8 8 6 5 5 2 1 2
10 10 10 9 9 9 9 10 10 10 10 10 10 11 10 10 10 11 12 12 12 11 9 9 9 9 9 9 6 5 2 1
13 13 13 12 11 11 10 10 9 9 10 10 10 10 11 8 11 11 10 10 12 13 13 12 11 10 10 10 10 9 7 4
15 14 13 13 13 12 11 11 11 11 12 12 13 13 13 12 12 12 12 13 11 10 10 11 12 13 12 12 12 11 10 10
13 14 14 14 14 14 14 13 14 14 14 14 14 13 13 12 12 13 12 12 12 12 13 13 13 13 13 12 12 12 12 12
12 12 12 12 13 13 14 15 14 14 14 14 14 14 14 13 13 13 12 12 13 12 12 13 12 13 13 13 13 13 12 13
8 8 9 11 12 13 13 13 12 12 13 13 13 12 12 11 10 10 10 10 10 10 10 10 11 12 13 13 12 12 12 12
3 3 5 6 7 8 8 7 7 6 4 4 3 4 4 5 4 3 2 2 4 4 5 6 7 7 10 12 12 12 13 13
-0 -2 -3 -3 -3 -3 -3 -5 -6 -7 -7 -7 -7 -8 -8 -8 -9 -9 -9 -9 -10 -10 -10 -9 -8 -6 -4 2 8 10 11 11
-3 -5 -7 -8 -8 -7 -7 -8 -8 -10 -12 -13 -14 -16 -19 -20 -21 -21 -20 -19 -17 -17 -17 -16 -15 -14 -13 -12 -9 -6 -4 0
-7 -8 -7 -6 -6 -8 -8 -14 -18 -21 -23 -24 -25 -26 -27 -28 -28 -27 -26 -25 -23 -23 -24 -25 -24 -21 -19 -13 -19 -17 -14 -10
-5 -5 -6 -6 -8 -13 -18 -20 -22 -23 -23 -23 -25 -27 -28 -28 -24 -20 -20 -22 -23 -23 -22 -21 -20 -14 3 3 2 -1 -5 1
-5 -5 -6 -7 -10 -15 -16 -17 -20 -21 -22 -22 -25 -27 -26 -14 -9 -8 -7 -10 -14 -16 -15 -10 -5 -11 -3 2 3 2 4 -5
-5 -5 -5 -4 -7 -13 -17 -17 -20 -17 -14 -15 -22 -16 -10 -5 -5 -5 -5 -4 -6 -7 -7 -5 -4 -5 -4 -1 -2 3 3 1
-4 -0 4 5 4 -3 -8 -8 -13 -12 -13 -12 -18 -12 -5 -3 -2 -3 -2 -1 -2 -2 -2 -3 -2 -2 -3 -4 -6 -6 -6 3
0 4 2 3 1 -4 -9 -13 -13 -12 -11 -11 -13 -13 -5 -4 -3 -3 -4 -4 -4 -4 -4 -3 -2 -4 -3 -3 -4 0 1 2
-1 -3 -3 -8 -10 -3 -5 -12 -11 -10 -10 -11 -11 -13 -10 -5 -3 -4 -5 -6 -6 -6 -6 -7 -6 -6 -6 -6 -7 -6 -4 -4
-5 0 3 -5 -3 3 -6 -10 -9 -9 -11 -11 -12 -13 -11 -5 -3 -3 -3 -4 -4 -4 -4 -5 -5 -6 -6 -6 -6 -7 -6 -4

GFSFLT2_850_dewp_246.txt.gz
Dewpoint
11 11 11 11 11 11 11 10 10 10 10 10 10 10 9 9 8 7 7 7 7 7 6 5 4 3 3 1 -0 1 7 11
11 12 12 12 12 12 12 11 11 11 11 11 11 11 11 11 10 10 9 8 7 7 7 8 7 6 5 4 3 0 0 11
11 14 15 15 14 13 13 12 12 12 12 11 11 11 11 11 11 10 10 10 10 8 8 8 8 8 8 7 5 4 9 10
10 11 12 12 13 12 12 12 13 13 12 12 12 12 13 12 12 11 11 11 11 11 10 9 8 10 13 11 9 11 11 10
11 11 12 12 12 12 12 13 12 12 12 14 14 14 14 12 11 11 12 11 12 12 12 12 13 14 13 14 14 14 13 12
14 15 14 14 14 13 13 13 13 12 12 12 12 12 12 13 13 13 13 12 12 13 12 11 13 14 14 13 13 14 14 13
14 14 14 14 13 14 13 13 13 14 13 13 13 12 12 12 12 12 13 12 12 13 13 13 12 11 11 11 11 11 12 13
13 13 13 14 13 14 14 14 14 14 14 14 13 12 13 13 13 13 13 13 13 13 13 13 13 13 13 13 13 13 13 13
12 12 11 12 12 12 13 13 13 12 12 12 12 12 12 11 11 11 11 10 10 9 9 9 10 10 11 13 13 13 13 12
7 7 8 9 11 12 11 11 10 8 7 4 0 -0 -0 -1 -2 -1 0 -1 -2 -2 -1 0 2 6 8 9 9 12 13 13
2 1 1 1 1 -1 -2 -5 -6 -6 -8 -10 -11 -13 -14 -15 -16 -16 -16 -16 -15 -13 -11 -5 1 1 2 3 5 6 8 10
-2 -4 -5 -7 -7 -8 -8 -10 -11 -16 -17 -20 -23 -25 -27 -28 -28 -29 -29 -27 -19 -8 -16 -6 1 1 1 1 2 2 3 3
-4 -6 -7 -7 -8 -10 -13 -17 -19 -20 -22 -24 -25 -26 -27 -28 -29 -27 -25 -22 -24 -24 -20 -5 -0 1 3 -0 -0 1 2 1
-6 -7 -6 -7 -10 -13 -18 -20 -20 -20 -20 -20 -21 -23 -25 -27 -25 -16 -13 -10 -8 -8 -6 -5 -2 2 2 2 -2 -0 2 6
-6 -5 -6 -7 -7 -6 -8 -7 -4 -4 -5 -10 -15 -17 -22 -25 -17 -10 -8 -8 -6 -6 -6 -8 0 1 3 3 1 -0 3 0
-5 -6 -6 -3 1 4 5 1 -5 -8 -10 -11 -12 -12 -15 -22 -17 -8 -7 -6 -5 -5 -4 2 3 3 3 3 4 3 2 0
-5 -5 -4 3 6 5 5 3 3 3 1 -3 -12 -14 -14 -18 -14 -7 -6 -6 -5 -4 -4 -3 -1 -0 3 2 2 2 2 1
-4 -5 1 3 3 2 0 2 1 -6 -10 -11 -13 -12 -12 -11 -12 -7 -5 -6 -7 -7 -7 -6 -4 -1 1 0 2 2 0 0
-4 -5 0 -4 -9 -6 2 3 2 -4 -9 -10 -12 -12 -10 -11 -10 -6 -3 -3 -5 -6 -6 -6 -5 -3 -0 0 1 1 1 1
-3 -3 -4 -2 -7 2 3 3 0 -9 -9 -9 -12 -13 -11 -9 -5 -3 -2 -3 -3 -3 -4 -4 -3 -5 -3 0 1 1 1 0

GFSFLT2_850_dewp_249.txt.gz
Dewpoint
9 9 9 9 8 8 8 7 7 7 8 8 8 8 8 7 7 6 6 7 7 6 7 6 5 3 2 1 -0 -1 -0 13
16 14 10 10 11 11 11 11 10 10 10 10 10 11 10 10 9 8 8 7 7 7 7 7 7 7 6 4 3 2 0 10
16 16 16 16 16 13 13 12 12 12 12 12 12 12 13 12 12 11 11 10 9 8 8 8 8 8 8 8 7 6 10 11
16 16 16 16 16 16 14 14 14 15 15 15 13 15 15 15 15 15 12 12 11 11 10 9 9 9 13 12 12 10 11 10
15 16 15 15 15 14 14 15 14 16 16 15 15 14 15 14 15 14 12 11 11 13 12 12 12 13 13 13 13 14 13 12
15 15 12 12 13 13 13 13 13 13 14 13 13 14 14 14 13 14 14 14 14 14 14 14 14 13 13 13 14 13 14 13
15 15 15 15 14 13 12 13 14 15 13 12 12 12 12 13 12 14 14 13 13 13 13 13 13 13 13 13 13 13 13 14
14 14 14 14 14 13 14 14 14 14 14 13 13 13 13 13 13 13 12 12 11 12 12 12 12 13 13 13 13 13 13 13
12 12 12 13 13 13 13 13 12 12 12 12 12 11 11 10 10 9 7 9 6 6 7 7 8 9 10 11 12 12 13 13
9 9 10 10 10 10 11 11 10 7 4 1 -2 -2 -3 -6 -7 -6 -4 -9 -10 -10 -7 -3 2 3 4 7 8 9 9 9
6 4 4 5 5 6 5 1 -3 -7 -9 -11 -15 -20 -22 -24 -26 -25 -28 -29 -29 -22 -10 -4 1 2 2 2 2 4 5 6
2 1 -1 -4 -5 -7 -7 -8 -11 -17 -20 -23 -24 -25 -26 -27 -26 -26 -25 -19 -17 -12 -16 -18 -13 -6 -0 -0 1 1 2 2
-1 -2 -5 -5 -1 -1 -1 -4 -14 -11 -11 -11 -15 -18 -20 -23 -24 -19 -10 -6 -5 -4 -0 2 2 2 2 2 1 0 0 2
-2 -5 -6 -6 -4 -5 -8 -8 -9 -4 -3 -3 -6 -13 -17 -19 -23 -22 -14 -11 -9 -4 0 -1 0 1 3 2 0 -1 1 2
-1 -3 -5 -4 -9 -9 -2 -0 -1 1 2 3 2 -0 -6 -11 -15 -18 -11 -2 -1 -6 -6 -8 -5 -5 -0 3 2 0 3 3
-0 0 -2 -7 -3 0 3 4 3 4 4 4 2 -5 -8 -8 -10 -11 -17 -5 -1 1 -1 -2 2 2 3 3 3 3 4 2
1 1 -1 -6 0 5 4 2 3 4 4 3 2 -10 -13 -6 -13 -14 -17 -12 -5 -3 2 3 3 3 3 3 3 3 2 2
2 1 -2 -4 3 3 -1 1 3 3 3 -1 -12 -13 -15 -16 -13 -12 -11 -8 -6 -5 -6 -4 2 2 3 3 2 2 1 1
2 2 1 2 0 -8 0 3 2 1 -4 -3 -2 -3 -4 -4 -10 -5 -7 -6 -5 -5 -5 -5 -6 -4 1 2 2 1 1 1
1 1 1 2 -0 1 3 2 2 2 -1 -2 -7 -8 -9 -9 -9 -3 0 1 0 1 1 1 1 1 2 1 2 1 1 1

GFSFLT2_850_dewp_252.txt.gz
Dewpoint
7 6 7 7 6 6 6 6 6 6 6 7 7 7 6 6 6 6 6 6 6 6 6 5 5 4 3 1 -0 -2 7 11
7 8 8 8 8 8 8 8 8 8 8 8 9 9 9 9 9 8 8 7 7 7 7 7 7 7 7 6 4 2 0 2
14 12 10 10 11 11 11 11 11 11 11 11 11 11 12 13 13 12 11 10 10 9 9 8 8 8 8 8 8 8 7 5
16 16 15 15 16 15 15 14 13 14 14 14 14 14 14 15 15 15 13 13 12 12 11 11 10 10 9 9 10 11 12 11
16 16 16 15 15 16 15 15 15 15 16 16 16 15 14 14 14 15 14 14 12 13 13 13 13 13 12 13 13 13 13 12
15 16 16 16 15 15 15 15 14 13 13 13 12 14 13 13 13 14 14 14 14 14 14 14 14 14 14 13 13 13 13 13
15 15 15 14 14 13 14 14 14 14 13 12 12 13 14 14 13 13 13 11 13 13 13 13 13 13 13 12 12 12 13 12
15 14 14 15 15 15 14 14 13 13 13 13 13 13 12 12 12 12 12 13 12 12 12 12 12 11 12 11 11 12 12 13
13 13 13 13 13 13 13 12 12 11 11 11 10 10 8 7 1 3 8 4 -2 -3 -2 -0 1 3 6 8 9 10 10 8
11 11 10 9 7 7 6 9 9 9 9 6 1 -5 -12 -19 -21 -15 -16 -22 -24 -22 -16 -11 -10 -10 -8 -4 -1 5 7 7
8 8 8 7 6 7 7 5 3 -2 -8 -13 -19 -22 -24 -25 -26 -23 -25 -24 -21 -18 -20 -14 -12 -13 -15 -15 -5 -0 1 3
4 3 2 1 0 -2 -5 -7 -8 -11 -15 -19 -14 -6 -4 -6 -12 -18 -23 -23 -21 -18 -14 -13 -9 -6 -2 -2 -5 -6 -5 -3
2 -0 -3 -4 -3 1 -0 -3 -7 -7 -2 0 2 3 3 4 4 2 -7 -18 -18 -17 -12 -13 -8 -3 -2 -2 -2 -8 -7 -2
1 -1 -4 -2 -1 -1 -2 -5 -5 -2 0 2 4 3 3 3 3 -0 -9 -10 -10 -12 -11 -12 -13 -9 1 2 1 -4 3 3
1 -0 -3 -5 -5 -9 -6 -1 -1 0 3 4 3 3 2 2 -6 -8 -11 -11 -6 -1 -3 -4 -7 -8 -2 3 3 3 1 2
1 0 -1 -3 -4 -3 -0 1 4 4 4 3 1 -0 -6 -12 -15 -15 -11 -7 -1 -3 -1 -2 -1 -1 -2 1 3 3 4 3
2 1 1 -1 -5 -1 4 3 2 3 2 1 -3 -6 -14 -15 -12 -11 -9 -9 -9 -7 -5 -1 1 2 3 3 2 2 3 3
2 2 1 -0 -2 3 2 0 2 2 1 0 -1 -5 -11 -11 -10 -10 -11 -11 -10 -8 -7 -5 -4 -2 -1 -1 2 2 2 2
2 2 2 3 3 0 -2 2 2 1 0 0 0 0 -9 -9 -8 -9 -9 -7 -7 -4 -3 -1 -0 1 1 1 1 2 2 2
2 2 2 2 3 0 4 4 2 -0 -0 1 1 0 -5 -8 -8 -10 -11 -10 -5 -3 0 0 0 0 1 1 2 1 2 2

GFSFLT2_850_dewp_255.txt.gz
Dewpoint
5 5 5 5 6 6 6 6 6 6 6 6 6 6 6 6 6 6 6 6 6 6 6 7 7 6 5 3 -0 -3 5 11
9 6 6 6 6 6 6 6 7 7 7 7 8 8 8 8 9 9 8 8 7 7 7 7 7 7 8 8 6 3 1 10
8 8 8 8 8 8 9 9 9 9 9 9 10 11 11 12 13 13 13 11 10 11 10 9 8 8 8 8 8 8 8 6
17 16 16 15 14 15 15 14 12 12 12 12 13 13 13 14 14 15 14 13 13 14 13 13 12 11 11 10 9 9 9 11
15 15 16 16 15 15 15 16 15 14 15 15 15 15 15 15 15 15 14 14 14 14 15 14 14 14 14 13 12 13 13 12
6 11 14 15 15 15 15 15 15 15 15 15 15 15 14 15 15 15 14 14 13 12 14 14 14 14 14 14 13 13 13 13
2 10 12 15 15 15 13 12 12 14 13 11 9 11 13 13 13 13 13 13 12 13 13 13 13 13 13 13 12 12 13 12
9 12 11 11 12 11 9 9 11 11 11 11 10 8 11 11 10 11 11 11 11 11 12 11 12 11 12 11 10 10 10 11
12 12 12 13 13 11 8 3 4 8 10 9 9 8 3 -3 -5 -8 -11 -13 -14 -15 -2 -4 -5 -7 -5 -2 4 8 9 9
11 10 9 8 10 9 8 8 7 6 5 1 -4 -12 -17 -17 -19 -18 -20 -23 -25 -25 -24 -24 -23 -23 -24 -23 -19 -10 0 7
9 8 7 8 8 8 6 5 3 -1 -12 -17 -13 -1 3 3 3 3 4 2 -2 -6 -13 -17 -18 -18 -20 -20 -21 -25 -23 -10
5 4 4 4 3 1 -1 -4 -8 -12 -13 -6 2 3 3 3 2 2 3 3 3 0 -4 -7 -11 -13 -9 -10 -18 -17 -14 -13
2 0 -1 -2 -2 -1 -1 -2 -6 -6 -1 3 4 3 3 1 1 2 2 -0 -0 -1 -2 -2 -3 -6 -4 -3 -7 -12 -5 2
2 -1 -2 -1 0 0 -0 -2 -6 -3 3 4 3 2 -1 -4 -6 -7 -12 -8 -9 -8 -7 -8 -8 -7 -6 -10 -5 -4 -0 3
2 1 -1 -3 -3 -2 -5 -4 -0 3 4 3 0 -2 -3 -5 -7 -16 -18 -15 -13 -11 -8 -5 -1 -2 -1 0 3 3 1 -6
1 1 0 -1 -3 -4 -1 -0 4 3 3 1 -0 -0 -1 -2 -6 -13 -13 -15 -16 -13 -8 -5 -2 -5 -6 0 2 3 4 3
2 1 1 1 -1 -3 1 4 2 2 1 1 -1 -1 -0 -1 -6 -9 -6 -9 -12 -12 -11 -10 -7 -5 -5 -5 -2 -0 1 3
2 2 1 1 1 -3 1 0 1 1 -0 -1 -0 0 -0 -1 -8 -8 -8 -10 -11 -11 -7 -6 -5 -4 -3 -3 -2 -0 2 3
2 2 2 2 1 1 1 -3 0 1 -0 1 2 1 1 1 -4 -7 -7 -9 -9 -8 -5 -4 -3 -2 -2 -1 0 1 2 2
2 2 2 2 2 3 1 2 3 3 1 3 2 2 2 1 -0 -5 -6 -6 -6 -6 -5 -5 -3 -2 -2 -4 -5 -3 -2 1